Weather in Gornyy

Russia / Tula Oblast     53°23′35″N   38°05′14″E
temp.,
°C
wind,
m/s
gust,
m/s
humid.,
%
clouds,
%
prec.,
mm/h
press.,
hPa
HPBL,
m
4 march, thu
thu400:00−2w61292100 0.1 1013714
03:00−2wsw71490100 0.1 1012487
06:00−3wsw7149387 0.0 1009409
09:00−2wsw8158993 0.0 1007444
12:00−1wsw8158598 0.0 1004724
15:000w7129099 0.0 1003913
18:000w61191100 0.1 1002739
21:00−1w51193100 0.2 1002566
5 march, fri
fri500:00−2wnw51095100 0.2 1002485
03:00−5nnw3495100 0.3 100581
06:00−8nw349497 0.0 100754
09:00−8nw349449 0.0 100993
12:00−5nw34920 0.0 1010260
15:00−3wnw24896 0.0 1011468
18:00−6w239165 0.0 101221
21:00−9nw229283 0.0 101521
6 march, sat
sat600:00−11nw119220 0.0 101521
03:00−12nnw019410 0.0 101621
06:00−13ssw11940 0.0 101621
09:00−9ssw129443 0.0 101643
12:00−6ssw1289100 0.0 1016280
15:00−5sw1287100 0.0 1016355
18:00−8sw239463 0.0 101721
21:00−7nw5109475 0.2 1018378
7 march, sun
sun700:00−12w479253 0.0 1018102
03:00−12sw5129126 0.0 1016206
06:00−9sw8168665 0.0 1013474
09:00−6sw10198382 0.0 1009794
12:00−4wsw121992100 0.2 10041185
15:00−2wsw132092100 0.8 10011333
18:00−5wnw71589100 2.2 10021221
21:00−7wsw3587100 2.3 100495
8 march, mon
mon800:00−9sw5119240 0.0 1003206
03:00−8sw6128770 0.0 1002336
06:00−7wsw7169146 0.0 1001667
09:00−9wnw7138156 0.2 1004877
12:00−9wnw7118547 0.0 1007799
15:00−7wnw6108150 0.0 1009882
18:00−10w478632 0.0 1010130
21:00−13wnw348731 0.0 101345